[[{"header":{"parameterUnit":"m.s-1","parameterCategory":1,"la1":30.2991,"la2":30.254,"lo1":-89.0895,"lo2":-89.0444,"dy":0.0017,"dx":0.0017,"nx":28,"ny":28,"refTime":"2023-04-06T21:00:00:Z","depth":0,"parameterNumber":2,"parameterNumberName":"U-component_of_WINDS"},"data":[0,0,0,0,0,0,0,0,0,0,0,0,0,0,0,0,0,0,0,0,0,0,0,0,0,0,0,0,0,0,0,0,0,0,0,0,0,0,0,0,0,0,0,0,0,0,0,0,0,0,0,0,0,0,0,0,0,0,1.9383,1.9383,0,1.9354,1.9353,1.9353,1.9251,1.9249,1.9246,1.9244,1.9218,1.9219,1.9221,0,0,0,0,0,0,0,0,0,0,0,0,0,1.9354,1.9355,1.9383,1.9383,1.9382,1.9354,1.9353,1.9353,1.9251,1.9249,1.9246,1.9243,1.9217,1.9219,1.9221,0,0,0,0,0,0,0,0,0,0,0,0,0,1.935,1.9355,1.9383,1.9328,1.9323,1.9354,1.9353,1.9353,1.9252,1.9249,1.9245,1.9242,1.9217,1.9219,1.9221,1.9304,0,0,1.9228,1.9229,0,0,0,0,0,0,0,0,1.935,1.9351,1.9336,1.9332,1.9326,1.9302,1.9333,1.9337,1.9253,1.9279,1.9244,1.924,1.9249,1.9248,1.925,1.9303,1.9301,1.9228,1.9229,1.923,1.9231,0,0,0,0,0,0,0,1.9351,1.9352,1.9371,1.9336,1.933,1.9306,1.9301,1.9333,1.9284,1.9276,1.9269,1.9267,1.9245,1.9249,1.9249,1.9301,1.9228,1.923,1.9231,1.9232,1.9419,1.9422,0,0,0,0,0,0,1.9358,1.9353,1.9372,1.9371,1.933,1.9309,1.9304,1.9314,1.9283,1.9275,1.927,1.9262,1.9247,1.9247,1.9248,1.9341,1.923,1.9232,1.9233,1.9415,1.9419,1.9423,0,0,0,0,0,0,1.9358,1.9361,1.9373,1.9359,1.9359,1.9313,1.9325,1.9315,1.9318,1.9278,1.9269,1.9282,1.9244,1.9245,1.929,1.9339,1.9233,1.9235,1.9411,1.9416,1.9421,1.9531,0,0,0,0,0,0,1.9358,1.9361,1.9392,1.9361,1.936,1.9416,1.9328,1.9317,1.9321,1.9311,1.9287,1.928,1.9241,1.9287,1.9292,1.934,1.9237,1.9406,1.9413,1.942,1.9523,1.9539,1.9554,0,0,0,0,0,1.9357,1.9425,1.9394,1.9397,1.9397,1.9419,1.9419,1.9372,1.9326,1.9356,1.9331,1.9281,1.9334,1.9293,1.9298,1.9347,1.9403,1.9411,1.9419,1.9516,1.9536,1.9553,0,0,0,0,0,0,1.9464,1.942,1.9385,1.9445,1.9436,1.9402,1.9438,1.9395,1.94,1.9391,1.9334,1.9329,1.9383,1.937,1.9325,1.9425,1.936,1.9369,1.9431,1.9451,1.9466,1.9467,1.9238,0,0,0,0,0,1.9494,1.9514,1.9475,1.9532,1.9529,1.9485,1.9493,1.9457,1.9447,1.9443,1.9421,1.9413,1.9428,1.9439,1.945,1.9521,1.9514,1.9557,1.9573,1.9586,1.9594,1.9629,1.9648,1.945,1.945,1.945,0,0,1.9557,1.9536,1.9552,1.9553,1.9542,1.9565,1.9483,1.9511,1.9527,1.9447,1.9488,1.9472,1.946,1.9518,1.9542,1.9509,1.9647,1.9596,1.9607,1.9608,1.964,1.9659,1.9675,1.9456,1.9455,1.9454,0,0,1.9684,1.967,1.9714,1.9705,1.9689,1.9659,1.9671,1.9643,1.9628,1.9668,1.9608,1.9628,1.9655,1.9648,1.9649,1.9773,1.9727,1.9778,1.9859,1.9894,1.991,1.9923,1.9966,1.9983,1.9787,1.9788,1.9788,0,1.9764,1.9795,1.9743,1.9775,1.9776,1.9705,1.975,1.9744,1.9734,1.9737,1.9699,1.973,1.9717,1.9772,1.9802,1.9806,1.9816,1.978,1.9912,1.9925,1.9937,1.9977,1.9993,1.9794,1.9793,1.9793,1.9792,0,1.9895,1.9917,1.9956,1.9945,1.9952,1.999,1.9945,1.9958,1.9923,1.9897,1.9939,1.992,1.9926,1.9937,1.9904,1.9988,1.9967,1.9922,1.9854,1.9962,1.9999,2.0014,1.9803,1.9801,1.9799,1.9797,0,0,2.0087,2.0047,2.0062,2.0056,2.0033,2.005,2.0086,2.009,2.0102,2.0098,2.0126,2.015,2.0108,2.0108,2.0073,2.0105,2.0203,2.0055,2.0054,2.0082,2.0293,2.0326,2.0345,2.0173,2.0175,2.0178,2.0293,0,2.0205,2.0261,2.0216,2.0281,2.0301,2.0233,2.0264,2.0254,2.0232,2.0246,2.0221,2.0239,2.0182,2.0182,2.021,2.0185,2.0244,2.0176,2.0198,2.0199,2.0201,2.0364,2.0399,2.0509,2.0308,2.031,2.0312,0,2.0351,2.0351,2.0418,2.039,2.0397,2.0425,2.0425,2.044,2.0428,2.0409,2.041,2.0366,2.0399,2.0335,2.038,2.0335,2.0341,2.0331,2.0334,2.0333,2.0261,2.0366,2.0543,2.0559,2.0334,2.0333,2.0331,0,2.0482,2.05,2.0541,2.0539,2.0508,2.0529,2.0518,2.0502,2.0507,2.0508,2.0511,2.0517,2.052,2.0526,2.0485,2.0442,2.0535,2.0468,2.052,2.0521,2.0541,2.054,2.0721,2.0549,2.0549,2.0549,2.0548,0,2.0618,2.0661,2.0599,2.0625,2.0671,2.062,2.0667,2.0649,2.0635,2.0656,2.06,2.0621,2.0567,2.0583,2.0552,2.0594,2.0596,2.0582,2.0573,2.0586,2.0587,2.0588,2.0578,2.0553,2.0552,2.0551,2.0551,0,2.0772,2.0732,2.0773,2.074,2.0733,2.0769,2.0741,2.0764,2.0737,2.0765,2.0769,2.0728,2.0744,2.0704,2.0715,2.0694,2.0753,2.0733,2.0757,2.075,2.0804,2.0799,2.0989,2.1011,2.0828,2.083,2.0831,0,2.086,2.0891,2.0862,2.0871,2.0862,2.0878,2.0883,2.0834,2.0842,2.083,2.0854,2.0865,2.0871,2.09,2.0872,2.088,2.0858,2.0924,2.0858,2.087,2.0856,2.0854,2.0856,2.0937,2.0939,2.0941,2.0943,0,2.1021,2.0999,2.1008,2.101,2.1017,2.1016,2.1012,2.1023,2.0971,2.0983,2.0997,2.1002,2.1012,2.1024,2.1025,2.1014,2.097,2.0964,2.0976,2.0988,2.1,2.0993,2.0791,2.0959,2.0957,2.0956,2.0955,2.0955,2.1143,2.1167,2.1149,2.1161,2.1152,2.1149,2.1168,2.1144,2.1155,2.1158,2.1129,2.115,2.1137,2.1134,2.1128,2.1144,2.1114,2.1132,2.1136,2.1141,2.1149,2.1,2.1145,2.1144,2.1143,2.1143,2.1143,0,2.1299,2.1284,2.1295,2.1289,2.1299,2.1256,2.1249,2.1259,2.1278,2.1269,2.1276,2.1293,2.1303,2.1276,2.1283,2.1301,2.1281,2.1305,2.1302,2.13,2.1177,2.1164,2.1321,2.1321,2.1321,2.1321,2.1321,2.1321,2.1381,2.1418,2.1395,2.1428,2.1414,2.1432,2.1432,2.1429,2.1421,2.1442,2.145,2.1432,2.1416,2.1421,2.143,2.1421,2.1426,2.1456,2.1441,2.1326,2.1309,2.1292,2.128,2.1458,2.1458,2.1562,2.1563,2.1564]},{"header":{"parameterUnit":"m.s-1","parameterCategory":1,"la1":30.2991,"la2":30.254,"lo1":-89.0895,"lo2":-89.0444,"dy":0.0017,"dx":0.0017,"nx":28,"ny":28,"refTime":"2023-04-06T21:00:00:Z","depth":0,"parameterNumber":3,"parameterNumberName":"V-component_of_WINDS"},"data":[0,0,0,0,0,0,0,0,0,0,0,0,0,0,0,0,0,0,0,0,0,0,0,0,0,0,0,0,0,0,0,0,0,0,0,0,0,0,0,0,0,0,0,0,0,0,0,0,0,0,0,0,0,0,0,0,0,0,3.1668,3.1674,0,3.2226,3.2232,3.2238,3.2436,3.2434,3.2432,3.243,3.3005,3.3022,3.3039,0,0,0,0,0,0,0,0,0,0,0,0,0,3.0775,3.079,3.1667,3.1674,3.1681,3.2225,3.2232,3.224,3.2436,3.2434,3.2431,3.2429,3.3,3.302,3.3041,0,0,0,0,0,0,0,0,0,0,0,0,0,3.1231,3.0795,3.1666,3.1845,3.1866,3.2223,3.2233,3.2242,3.2437,3.2434,3.2431,3.2428,3.2993,3.3018,3.3043,3.3265,0,0,3.3122,3.3134,0,0,0,0,0,0,0,0,3.1204,3.1263,3.1811,3.1833,3.1858,3.2258,3.2129,3.2585,3.2438,3.222,3.243,3.2426,3.2759,3.2804,3.2916,3.3292,3.3316,3.3125,3.314,3.3151,3.3159,0,0,0,0,0,0,0,3.1173,3.124,3.1888,3.1819,3.1847,3.1898,3.1959,3.2216,3.25,3.2239,3.2255,3.2318,3.2771,3.289,3.2931,3.3325,3.3124,3.3147,3.3163,3.3173,3.391,3.3914,0,0,0,0,0,0,3.1111,3.1213,3.1871,3.1905,3.1517,3.1916,3.1985,3.2133,3.2498,3.2551,3.232,3.2325,3.2848,3.29,3.2952,3.3235,3.3151,3.3175,3.319,3.3906,3.3911,3.3915,0,0,0,0,0,0,3.1091,3.1167,3.1848,3.1564,3.1654,3.1935,3.2099,3.2145,3.2265,3.2559,3.2611,3.2389,3.2847,3.2915,3.3185,3.3257,3.3187,3.3211,3.3901,3.3907,3.3913,3.3801,0,0,0,0,0,0,3.1064,3.1159,3.1245,3.1564,3.1668,3.2071,3.2104,3.2158,3.2308,3.232,3.2638,3.2688,3.285,3.3145,3.3211,3.3292,3.3231,3.3896,3.3904,3.3911,3.38,3.3803,3.3806,0,0,0,0,0,3.1032,3.1193,3.1249,3.1327,3.1782,3.2075,3.2135,3.2317,3.2313,3.2403,3.2592,3.2678,3.3238,3.3171,3.3247,3.3336,3.3892,3.3902,3.391,3.3799,3.3802,3.3806,0,0,0,0,0,0,3.0877,3.1238,3.1304,3.1572,3.1791,3.2107,3.2226,3.2316,3.2541,3.2543,3.2761,3.2832,3.3084,3.3238,3.3156,3.357,3.3571,3.3595,3.346,3.3466,3.3468,3.3426,3.3252,0,0,0,0,0,3.0873,3.108,3.1385,3.1592,3.1699,3.1942,3.2077,3.2199,3.2435,3.2529,3.2738,3.2964,3.3192,3.3338,3.3564,3.3823,3.3895,3.3922,3.3924,3.3925,3.3944,3.4092,3.4108,3.3945,3.3945,3.3945,0,0,3.087,3.1092,3.121,3.1567,3.1751,3.196,3.2019,3.2239,3.2397,3.2563,3.283,3.2991,3.3258,3.3523,3.3651,3.3659,3.4005,3.3937,3.3935,3.3955,3.4103,3.4118,3.4132,3.3952,3.395,3.3949,0,0,3.097,3.1159,3.1352,3.1535,3.1812,3.1973,3.2019,3.2322,3.2435,3.2706,3.2834,3.3026,3.3413,3.3599,3.3743,3.3912,3.3999,3.3979,3.3994,3.4136,3.4149,3.4161,3.4221,3.4239,3.3997,3.3997,3.3997,0,3.093,3.1251,3.144,3.1654,3.1807,3.1965,3.2163,3.2331,3.2668,3.277,3.2775,3.3263,3.3455,3.3765,3.3805,3.3918,3.3977,3.3944,3.4131,3.4146,3.416,3.4219,3.4241,3.3992,3.3993,3.3993,3.3994,0,3.1188,3.1408,3.1532,3.1851,3.2018,3.2222,3.2444,3.2591,3.2697,3.2858,3.3132,3.3366,3.3642,3.3725,3.3832,3.4051,3.4047,3.4088,3.4094,3.4168,3.4227,3.4252,3.3986,3.3988,3.3989,3.399,0,0,3.1207,3.1628,3.167,3.1817,3.2133,3.2308,3.2519,3.2787,3.2909,3.3135,3.3318,3.3641,3.3682,3.3845,3.3975,3.4099,3.4217,3.4126,3.4136,3.4134,3.4471,3.4438,3.4461,3.4276,3.4281,3.4285,3.4449,0,3.1348,3.1732,3.1908,3.2213,3.2419,3.2571,3.2756,3.297,3.3125,3.3323,3.3496,3.3721,3.3757,3.3857,3.3987,3.4174,3.4287,3.4165,3.4449,3.4456,3.4376,3.4492,3.4459,3.4601,3.4473,3.4477,3.448,0,3.1565,3.1789,3.2114,3.2405,3.2499,3.266,3.292,3.3107,3.3354,3.3458,3.3639,3.3764,3.3992,3.3981,3.4298,3.4211,3.4338,3.4447,3.4457,3.4491,3.4472,3.4529,3.4652,3.4672,3.4519,3.4516,3.4513,0,3.1545,3.1929,3.2173,3.2294,3.264,3.275,3.29,3.3143,3.3293,3.352,3.3619,3.387,3.4007,3.4199,3.4387,3.4362,3.4686,3.4691,3.478,3.4775,3.4842,3.4835,3.4986,3.4922,3.4922,3.4921,3.4921,0,3.1685,3.1877,3.2169,3.2319,3.2539,3.274,3.2953,3.3114,3.3329,3.3513,3.3661,3.3831,3.4069,3.4269,3.4418,3.4658,3.4719,3.481,3.4847,3.4797,3.4785,3.4883,3.4878,3.4928,3.4926,3.4925,3.4924,0,3.17,3.1903,3.2179,3.2483,3.2565,3.2713,3.2975,3.3126,3.3288,3.3519,3.3585,3.384,3.4083,3.429,3.461,3.471,3.4958,3.5003,3.4874,3.4894,3.4971,3.496,3.519,3.5231,3.5138,3.5139,3.5139,0,3.1775,3.1927,3.2247,3.238,3.2527,3.274,3.2893,3.3098,3.3251,3.3542,3.3658,3.3911,3.4125,3.4506,3.472,3.4966,3.5017,3.5081,3.5055,3.4999,3.5018,3.5006,3.5023,3.5082,3.5082,3.5082,3.5082,0,3.1887,3.198,3.2194,3.2444,3.2622,3.2828,3.3039,3.314,3.3383,3.3548,3.3798,3.3963,3.4289,3.4539,3.4807,3.4962,3.5063,3.5088,3.5122,3.5072,3.4991,3.5035,3.4877,3.5082,3.5082,3.5082,3.5082,3.5082,3.1937,3.2078,3.2324,3.2558,3.2738,3.2931,3.3087,3.3268,3.348,3.376,3.3868,3.4123,3.4365,3.4736,3.4891,3.5094,3.5108,3.5157,3.5169,3.5178,3.517,3.4957,3.5143,3.5144,3.5144,3.5144,3.5144,0,3.2056,3.2222,3.2434,3.2723,3.2907,3.2984,3.3221,3.337,3.3592,3.3809,3.4015,3.4301,3.4544,3.4776,3.503,3.5147,3.52,3.5207,3.5201,3.5235,3.5143,3.5088,3.516,3.516,3.516,3.516,3.516,3.516,3.2139,3.2382,3.2504,3.2837,3.3003,3.3253,3.3381,3.356,3.3734,3.4047,3.4248,3.4398,3.4621,3.4893,3.5118,3.5181,3.5267,3.5262,3.5336,3.5246,3.5241,3.5237,3.5187,3.5279,3.5279,3.5412,3.5413,3.5414]}]]